Вернуться в каталог

METEOR 2-17 DEB

АктивенPO
NORAD 29299·DEBRIS·🇷🇺 Russia

Запущен Jan 30, 1988 с Plesetsk Cosmodrome

Loading…

Ближайшие Пролёты (ближайшие 24 часа)

TLE

СвежийSource: Space-Track

Эпоха: Sep 13, 2026, 01:12 UTC

1 29299U 88005N   26256.05067590  .00002003  00000-0  11849-2 0  9995
2 29299  82.5337 171.1574 0032571 300.8311  58.9658 14.07035416696183

Отслеживайте METEOR 2-17 DEB в реальном времени с AllMySat

Download on the App Store